Location: Ferris
(32.5340°N, 96.6656°W)
Time: 22:36:38
(UTC+00:00)

Cosmos 1354 Rocket - Pass Details

Date: 22 May 2026
Orbit: 761 x 778 km, 74.0° (Epoch: 7 June)

Event Time Altitude Azimuth Distance (km) Brightness Sun altitude
Rises 02:45:54 0° 359° (N) 3,230 7.8 -15.9°
Reaches altitude 10° 02:48:48 10° 14° (NNE) 2,298 6.8 -16.3°
Maximum altitude 02:52:49 22° 65° (ENE) 1,616 5.4 -17.0°
Enters shadow 02:54:09 20° 87° (E) 1,705 5.4 -17.2°
